Weather History for Garrison, ND

Change the Weather History Date:

Thursday, April 10, 2014

  Actual Average Record
Temperature  
Mean Temperature 45 °F -  
Max Temperature 58 °F 47 °F 70 °F (2006)
Min Temperature 31 °F 25 °F 1 °F (1997)
Degree Days  
Heating Degree Days 20    
Month to date heating degree days 295  
Moisture  
Dew Point 24 °F    
Average Humidity 51    
Maximum Humidity 78    
Minimum Humidity 24    
Precipitation  
Precipitation 0.00 in - - ()
Month to date precipitation 0.18  
Year to date precipitation 2.24  
Sea Level Pressure  
Sea Level Pressure 29.87 in    
Wind  
Wind Speed 13 mph (WNW)    
Max Wind Speed 25 mph    
Max Gust Speed 33 mph    
Averages and records for this station are not official NWS values.
T = Trace of Precipitation, MM = Missing Value Source: NWS Daily Summary

Daily Weather History Graph

Daily Weather History Graph

Search for Another Location

Airport:

Trip Planner

Search our weather history database for the weather conditions in past years. The results will help you decide how hot, cold, wet, or windy it might be!

Date:

Astronomy

Apr. 10, 2014 Rise Set
Actual Time 7:06 AM CDT 8:28 PM CDT
Civil Twilight 6:34 AM CDT 9:00 PM CDT
Nautical Twilight 5:56 AM CDT 9:39 PM CDT
Astronomical Twilight 5:14 AM CDT 10:20 PM CDT
Moon 3:57 PM CDT (4/10) 4:49 AM CDT (4/10)
Length of Visible Light 14h 25m
Length of Day
13h 22m
Waxing Gibbous, 80% of the Moon is Illuminated
Apr 10
Waxing Gibbous
Apr 15
Full
Apr 22
Last Quarter
Apr 29
New
May 6
First Quarter

Hourly Weather History & Observations

Time (CDT) Temp. Windchill Dew Point Humidity Pressure Visibility Wind Dir Wind Speed Gust Speed Precip Events Conditions
12:52 AM 39.0 °F 32.3 °F 24.1 °F 55% 29.78 in - West 10.4 mph - N/A   Unknown
1:52 AM 37.9 °F 30.5 °F 23.0 °F 55% 29.80 in - WNW 11.5 mph - N/A   Unknown
2:52 AM 37.0 °F 28.9 °F 23.0 °F 57% 29.81 in - West 12.7 mph - N/A   Unknown
3:52 AM 35.1 °F 26.9 °F 23.0 °F 61% 29.83 in - West 11.5 mph - N/A   Unknown
4:52 AM 33.1 °F 25.5 °F 24.1 °F 70% 29.85 in - West 9.2 mph - N/A   Unknown
5:52 AM 30.9 °F 22.8 °F 24.1 °F 76% 29.86 in - West 9.2 mph - N/A   Unknown
6:52 AM 30.9 °F 21.7 °F 24.1 °F 76% 29.88 in - West 11.5 mph - N/A   Unknown
7:52 AM 34.0 °F 25.0 °F 26.1 °F 73% 29.90 in - West 12.7 mph - N/A   Unknown
8:52 AM 37.9 °F 29.2 °F 26.1 °F 62% 29.91 in - West 15.0 mph - N/A   Unknown
9:52 AM 43.0 °F 35.4 °F 26.1 °F 51% 29.91 in - WNW 16.1 mph - N/A   Unknown
10:52 AM 48.9 °F - 25.0 °F 39% 29.91 in - WNW 18.4 mph - N/A   Unknown
11:52 AM 50.0 °F - 23.0 °F 35% 29.91 in - WNW 19.6 mph 25.3 mph N/A   Unknown
12:52 PM 52.0 °F - 19.9 °F 28% 29.90 in - WNW 12.7 mph - N/A   Unknown
1:52 PM 54.0 °F - 21.0 °F 28% 29.89 in - WNW 16.1 mph 25.3 mph N/A   Unknown
2:52 PM 55.0 °F - 21.0 °F 27% 29.88 in - West 18.4 mph 27.6 mph N/A   Unknown
3:52 PM 55.9 °F - 19.0 °F 24% 29.86 in - WNW 11.5 mph - N/A   Unknown
4:52 PM 57.9 °F - 21.9 °F 25% 29.85 in - West 12.7 mph - N/A   Unknown
5:52 PM 57.9 °F - 23.0 °F 26% 29.83 in - NNW 11.5 mph - N/A   Unknown
6:52 PM 54.0 °F - 26.1 °F 34% 29.84 in - NNW 8.1 mph - N/A   Unknown
7:52 PM 52.0 °F - 25.0 °F 35% 29.87 in - NW 9.2 mph - N/A   Unknown
8:52 PM 50.0 °F - 25.0 °F 38% 29.88 in - NW 5.8 mph - N/A   Unknown
9:52 PM 48.9 °F - 27.0 °F 43% 29.90 in - NNW 10.4 mph - N/A   Unknown
10:52 PM 46.9 °F - 25.0 °F 42% 29.90 in - NE 4.6 mph - N/A   Unknown
11:52 PM 35.1 °F - 25.0 °F 67% 29.90 in - Calm Calm - N/A   Unknown